Content
SEND FEEDBACK

Daily
Averages
Monthly
Summary
Philippines

OLONGAPO, PHILIPPINES


Home > Asia > Philippines
Elevation: 55 feet     Latitude: 14 48N     Longitude: 120 16E

WEATHER
 
SELECT A DAY
Number of Records: 135,020;   Date Range: 7/31/96 - 8/12/14
 
SHARE

PRINT THIS DATA

[ ← Previous Day ]
WEATHER ALMANAC - AUGUST 1, 2013
[ Next Day → ]
[ °C ]   °F
Weather ElementAverageHighLow
Temperature75.2 °F83 °F (2:00 pm) (2:00 pm)
Dewpoint72.3 °F77 °F (11:00 am) (7:00 pm)
Humidity90.1 %94 % (2:00 am)77 % (2:00 pm)
Barometer29.68 in29.78 in (11:00 pm)29.62 in (3:00 am)
Wind Speed5.7 mph11.2 mph (5:00 pm)
Weather ElementAverage
Visibility5.4 mi
Wind DirectionSSE (142.4 °)

Weather ElementTotal
Precipitation---
Heating Degree Days23.5 (Base 65)
Averaged from 29 records on August 1, 2013
WEATHER CONDITIONS BREAKOUT
WIND DIRECTION BREAKOUT
WEATHER BY HOUR - AUGUST 1, 2013
[ °C ]   °F
Local TimeTemperatureDewpointHumidityBarometerVisibilityWind DirectionWind SpeedGust SpeedPrecipitationEventsConditions
2:00 AM76.0 °F11.0 miEast (80°)4.5 mphOvercast
2:00 AM77.0 °F75.2 °F94 %29.65 in6.2 miEast (80°)3.5 mphMostly Cloudy
3:00 AM77.0 °F75.2 °F94 %29.62 in6.2 miSouth (170°)1.2 mphMostly Cloudy
4:00 AM77.0 °F75.2 °F94 %29.62 in5.0 miENE (70°)4.6 mphRainLight Rain Showers
5:00 AM75.2 °F73.4 °F94 %29.62 in3.7 miEast (100°)4.6 mphRainLight Rain
6:00 AM77.0 °F73.4 °F89 %29.62 in2.5 miVariable3.5 mphRainLight Rain
7:00 AM77.0 °F73.4 °F89 %29.65 in2.5 miVariable2.3 mphRainLight Rain
8:00 AM77.0 °F75.2 °F94 %29.65 in5.0 miEast (80°)2.3 mphRainLight Rain
8:00 AM77.0 °F74.0 °F90 %29.66 in5.0 miEast (80°)2.2 mphRainRain
9:00 AM77.0 °F75.2 °F94 %29.68 in5.0 miSW (220°)5.8 mphRainLight Rain
10:00 AM78.8 °F75.2 °F89 %29.68 in6.2 miSW (220°)3.5 mphOvercast
11:00 AM77.0 °F74.0 °F90 %29.66 in5.0 miEast (80°)2.2 mphRainRain
11:00 AM80.6 °F77.0 °F89 %29.68 in6.2 miSE (130°)3.5 mphOvercast
12:00 PM78.8 °F77.0 °F94 %29.68 in5.0 miSouth (170°)10.4 mphRainRain
1:00 PM80.6 °F77.0 °F89 %29.65 in5.6 miSouth (180°)6.9 mphRainRain Showers
2:00 PM83.0 °F77.0 °F77 %29.66 in6.0 miSouth (180°)4.5 mphOvercast
2:00 PM0.0 °F0.0 °F29.65 in5.6 miSouth (180°)3.5 mphRainRain Showers
3:00 PM77.0 °F75.2 °F94 %29.65 in5.0 miSSW (200°)9.2 mphRainRain
4:00 PM77.0 °F75.2 °F94 %29.65 in5.0 miSSE (160°)9.2 mphRainRain
5:00 PM78.0 °F74.0 °F83 %29.68 in5.0 miSouth (180°)11.2 mphRainRain
5:00 PM78.8 °F75.2 °F89 %29.68 in5.0 miSouth (180°)10.4 mphRainRain
6:00 PM77.0 °F73.4 °F89 %29.68 in5.0 miSouth (170°)9.2 mphRainLight Rain
7:00 PM77.0 °F73.4 °F89 %29.71 in5.6 miSouth (170°)6.9 mphRainLight Rain Showers
8:00 PM77.0 °F74.0 °F90 %29.71 in5.0 miSouth (170°)2.2 mphRainRain
8:00 PM77.0 °F75.2 °F94 %29.71 in5.0 miSouth (170°)1.2 mphRainRain
9:00 PM78.8 °F75.2 °F89 %29.74 in5.6 miSouth (180°)9.2 mphRainLight Rain Showers
10:00 PM78.8 °F75.2 °F89 %29.77 in6.2 miSouth (170°)10.4 mphOvercast
11:00 PM80.0 °F76.0 °F84 %29.78 in5.0 miSouth (180°)8.9 mphHaze
11:00 PM78.8 °F75.2 °F89 %29.77 in6.2 miSouth (180°)9.2 mphOvercast
Hourly data recorded from RPLB, located miles away from Olongapo, Philippines







STORIES FROM OUR PARTNERS